Simultaneous Nadir Overpasses (SNOs) Predictions

Prediction of SNOs between AQUA and NOAA-19 Satellite Orbit:

Table of predicted SNOs for the next 14.0 days since TLE Epoch: 11/23/2014
Index Date (AQUA) Time (AQUA) Lat,Lon (AQUA) SZA (AQUA ) Date (NOAA-19) Time (NOAA-19) Lat,Lon (NOAA-19) SZA (NOAA-19 ) Distance(km) Time Diff (sec)
1 11/23/2014 05:52:01 78.82, 69.27 99.68 11/23/2014 05:51:42 78.81, 69.39 99.67 2.92 19
2 11/25/2014 10:36:22 79.02, -2.93 100.39 11/25/2014 10:35:27 79.03, -3.05 100.42 2.88 55
3 11/25/2014 11:25:39 -78.65, 166.80 80.09 11/25/2014 11:26:22 -78.65, 166.83 80.10 0.56 43
4 11/27/2014 16:09:59 -78.83, 94.76 79.44 11/27/2014 16:10:06 -78.83, 94.71 79.43 0.95 7
5 11/29/2014 20:54:17 -78.95, 23.02 78.89 11/29/2014 20:53:48 -78.95, 23.00 78.88 0.46 29
6 11/29/2014 21:43:37 78.66,-167.74 100.75 11/29/2014 21:44:37 78.67,-167.82 100.75 2.18 60
7 12/02/2014 01:38:34 -79.04, -48.63 78.40 12/02/2014 01:37:29 -79.04, -48.54 78.40 2.00 65
8 12/02/2014 02:27:55 78.81, 120.40 101.30 12/02/2014 02:28:19 78.81, 120.37 101.29 0.57 24
9 12/04/2014 07:12:13 78.97, 48.37 101.84 12/04/2014 07:12:02 78.98, 48.24 101.86 3.00 11
10 12/06/2014 11:56:29 79.08, -23.33 102.28 12/06/2014 11:55:43 79.09, -23.46 102.31 3.03 46




NCC Satellite Simultaneous Nadir Overpasses (SNOs) Prediction Service
